Weather History for Anoka County, MN

Change the Weather History Date:

Monday, March 31, 2014

  Actual Average Record
Temperature  
Mean Temperature 44 °F -  
Max Temperature 53 °F 45 °F 64 °F (1999)
Min Temperature 33 °F 28 °F 21 °F (2004)
Degree Days  
Heating Degree Days 21    
Moisture  
Dew Point 37 °F    
Average Humidity 71    
Maximum Humidity 93    
Minimum Humidity 62    
Precipitation  
Precipitation 0.00 in - - ()
Sea Level Pressure  
Sea Level Pressure 29.61 in    
Wind  
Wind Speed 9 mph (SE)    
Max Wind Speed 20 mph    
Max Gust Speed 30 mph    
Visibility 10 miles    
Events      
Averages and records for this station are not official NWS values.
T = Trace of Precipitation, MM = Missing Value Source: NWS Daily Summary

Daily Weather History Graph

Daily Weather History Graph

Search for Another Location

Airport:

Trip Planner

Search our weather history database for the weather conditions in past years. The results will help you decide how hot, cold, wet, or windy it might be!

Date:

Astronomy

Mar. 31, 2014 Rise Set
Actual Time 6:55 AM CDT 7:39 PM CDT
Civil Twilight 6:25 AM CDT 8:09 PM CDT
Nautical Twilight 5:50 AM CDT 8:44 PM CDT
Astronomical Twilight 5:13 AM CDT 9:21 PM CDT
Moon 7:16 AM CDT (3/31) 9:03 PM CDT (3/31)
Length of Visible Light 13h 43m
Length of Day
12h 44m
New Moon, 1% of the Moon is Illuminated
Mar 31
New Moon
Apr 7
First Quarter
Apr 15
Full
Apr 22
Last Quarter
Apr 29
New

Hourly Weather History & Observations

Time (CDT) Temp. Windchill Dew Point Humidity Pressure Visibility Wind Dir Wind Speed Gust Speed Precip Events Conditions
12:15 AM 44.6 °F 40.7 °F 39.2 °F 81% 29.77 in 10.0 mi East 6.9 mph - N/A   Clear
12:35 AM 46.4 °F 41.9 °F 37.4 °F 71% 29.76 in 10.0 mi ESE 9.2 mph - N/A   Clear
12:55 AM 46.4 °F 42.4 °F 37.4 °F 71% 29.75 in 10.0 mi ESE 8.1 mph - N/A   Clear
1:15 AM 46.4 °F 42.4 °F 37.4 °F 71% 29.75 in 10.0 mi ESE 8.1 mph - N/A   Clear
1:35 AM 48.2 °F - 37.4 °F 66% 29.74 in 10.0 mi ESE 9.2 mph - N/A   Clear
1:55 AM 48.2 °F - 35.6 °F 62% 29.74 in 10.0 mi SE 9.2 mph - N/A   Clear
2:15 AM 48.2 °F - 35.6 °F 62% 29.74 in 10.0 mi SE 9.2 mph - N/A   Clear
2:35 AM 48.2 °F - 35.6 °F 62% 29.73 in 10.0 mi SE 9.2 mph - N/A   Clear
2:55 AM 48.2 °F - 35.6 °F 62% 29.72 in 10.0 mi SE 9.2 mph - N/A   Clear
3:16 AM 48.2 °F - 35.6 °F 62% 29.72 in 10.0 mi SE 8.1 mph - N/A   Clear
3:35 AM 48.2 °F - 35.6 °F 62% 29.71 in 10.0 mi SE 8.1 mph - N/A   Clear
3:55 AM 48.2 °F - 35.6 °F 62% 29.70 in 10.0 mi ESE 8.1 mph - N/A   Clear
4:16 AM 48.2 °F - 35.6 °F 62% 29.70 in 10.0 mi ESE 6.9 mph - N/A   Clear
4:35 AM 48.2 °F - 35.6 °F 62% 29.70 in 10.0 mi SE 8.1 mph - N/A   Clear
4:55 AM 48.2 °F - 35.6 °F 62% 29.69 in 10.0 mi ESE 5.8 mph - N/A   Clear
5:16 AM 46.4 °F 43.5 °F 35.6 °F 66% 29.69 in 10.0 mi East 5.8 mph - N/A   Clear
5:35 AM 46.4 °F 43.5 °F 35.6 °F 66% 29.68 in 10.0 mi ESE 5.8 mph - N/A   Clear
5:55 AM 46.4 °F 42.9 °F 35.6 °F 66% 29.67 in 10.0 mi ESE 6.9 mph - N/A   Clear
6:16 AM 46.4 °F 41.9 °F 35.6 °F 66% 29.66 in 10.0 mi ESE 9.2 mph - N/A   Clear
6:35 AM 48.2 °F - 35.6 °F 62% 29.64 in 10.0 mi ESE 10.4 mph - N/A   Clear
6:55 AM 48.2 °F - 35.6 °F 62% 29.65 in 10.0 mi ESE 10.4 mph - N/A   Clear
7:45 AM 48.2 °F - 35.6 °F 62% 29.66 in 10.0 mi ESE 10.4 mph 17.3 mph N/A   Overcast
8:45 AM 48.2 °F - 35.6 °F 62% 29.66 in 10.0 mi ESE 12.7 mph 19.6 mph N/A   Overcast
9:45 AM 48.2 °F - 37.4 °F 66% 29.63 in 10.0 mi ESE 12.7 mph 19.6 mph N/A   Overcast
10:45 AM 46.4 °F 40.7 °F 42.8 °F 87% 29.61 in 10.0 mi ESE 12.7 mph 19.6 mph N/A   Overcast
11:45 AM 46.4 °F 40.7 °F 42.8 °F 87% 29.60 in 10.0 mi ESE 12.7 mph 17.3 mph N/A   Overcast
12:45 PM 46.4 °F 41.1 °F 44.6 °F 93% 29.57 in 10.0 mi ESE 11.5 mph - N/A   Overcast
9:15 PM 53.6 °F - 48.2 °F 82% 29.34 in 10.0 mi SE 9.2 mph - N/A   Mostly Cloudy
9:35 PM 53.6 °F - 48.2 °F 82% 29.34 in 10.0 mi South 8.1 mph - N/A   Mostly Cloudy
9:55 PM 48.2 °F - 39.2 °F 71% 29.37 in 10.0 mi SSW 17.3 mph 29.9 mph N/A   Overcast
10:15 PM 42.8 °F 34.5 °F 35.6 °F 76% 29.38 in 10.0 mi SSW 18.4 mph 29.9 mph N/A   Overcast
10:35 PM 41.0 °F 33.5 °F 35.6 °F 81% 29.40 in 10.0 mi SSW 13.8 mph 20.7 mph N/A   Overcast
10:55 PM 37.4 °F 27.2 °F 33.8 °F 87% 29.40 in 10.0 mi South 19.6 mph 24.2 mph N/A   Overcast
11:15 PM 35.6 °F 27.1 °F 30.2 °F 81% 29.41 in 10.0 mi South 12.7 mph 21.9 mph N/A   Overcast
11:35 PM 35.6 °F 25.2 °F 30.2 °F 81% 29.42 in 10.0 mi South 18.4 mph 24.2 mph N/A   Overcast
11:55 PM 33.8 °F 26.4 °F 32.0 °F 93% 29.42 in 3.0 mi South 9.2 mph - N/A   Overcast